| time (UTC) | temp C | wind direction | speed KPH | gust KPH | rain 1hr cm | rain 24hr cm | rain mn cm | humidity % | barometer mb |
| 20260905215804 | 21 | 98 | 1.6 | 3.2 | 0.00 | 0.00 | 0.00 | 75 | 1022.0 |
| 20260905215306 | 21 | 83 | 1.6 | 4.8 | 0.00 | 0.00 | 0.00 | 74 | 1022.0 |
| 20260905214804 | 21 | 59 | 3.2 | 4.8 | 0.00 | 0.00 | 0.00 | 71 | 1022.0 |
| 20260905214305 | 21 | 81 | 3.2 | 4.8 | 0.00 | 0.00 | 0.00 | 68 | 1022.0 |
| 20260905213804 | 21 | 73 | 3.2 | 8.0 | 0.00 | 0.00 | 0.00 | 69 | 1022.0 |
| 20260905213305 | 21 | 39 | 3.2 | 9.7 | 0.00 | 0.00 | 0.00 | 69 | 1022.0 |
| 20260905212306 | 21 | 33 | 4.8 | 12.9 | 0.00 | 0.00 | 0.00 | 70 | 1022.0 |
| 20260905211805 | 21 | 31 | 3.2 | 4.8 | 0.00 | 0.00 | 0.00 | 72 | 1022.0 |
| 20260905211305 | 21 | 36 | 1.6 | 8.0 | 0.00 | 0.00 | 0.00 | 75 | 1022.0 |
| 20260905205306 | 22 | 250 | 0.0 | 1.6 | 0.00 | 0.00 | 0.00 | 82 | 1022.0 |
| 20260905202804 | 22 | 243 | 0.0 | 3.2 | 0.00 | 0.00 | 0.00 | 81 | 1021.0 |
| 20260905202306 | 22 | 243 | 1.6 | 4.8 | 0.00 | 0.00 | 0.00 | 81 | 1021.0 |
| 20260905195804 | 22 | 234 | 1.6 | 3.2 | 0.00 | 0.00 | 0.00 | 79 | 1021.0 |
| 20260905195306 | 22 | 229 | 1.6 | 3.2 | 0.00 | 0.00 | 0.00 | 79 | 1021.0 |
| 20260905194804 | 22 | 257 | 0.0 | 4.8 | 0.00 | 0.00 | 0.00 | 79 | 1021.0 |
| 20260905194304 | 22 | 252 | 1.6 | 3.2 | 0.00 | 0.00 | 0.00 | 79 | 1021.0 |
| 20260905193804 | 22 | 168 | 0.0 | 1.6 | 0.00 | 0.00 | 0.00 | 79 | 1021.0 |
| 20260905193305 | 22 | 168 | 1.6 | 3.2 | 0.00 | 0.00 | 0.00 | 79 | 1021.0 |
| 20260905192804 | 22 | 168 | 1.6 | 3.2 | 0.00 | 0.00 | 0.00 | 79 | 1021.0 |
| 20260905192306 | 22 | 168 | 0.0 | 3.2 | 0.00 | 0.00 | 0.00 | 79 | 1021.0 |
| 20260905191805 | 22 | 178 | 0.0 | 1.6 | 0.00 | 0.00 | 0.00 | 79 | 1021.0 |
| 20260905191304 | 22 | 181 | 0.0 | 4.8 | 0.00 | 0.00 | 0.00 | 79 | 1021.0 |
| 20260905185804 | 22 | 188 | 3.2 | 4.8 | 0.00 | 0.00 | 0.00 | 79 | 1021.0 |
| 20260905185306 | 22 | 122 | 3.2 | 4.8 | 0.00 | 0.00 | 0.00 | 79 | 1021.0 |
| 20260905183804 | 22 | 192 | 3.2 | 4.8 | 0.00 | 0.00 | 0.00 | 79 | 1021.0 |
| 20260905183304 | 22 | 194 | 3.2 | 4.8 | 0.00 | 0.00 | 0.00 | 78 | 1021.0 |
| 20260905172305 | 22 | 248 | 4.8 | 8.0 | 0.00 | 0.00 | 0.00 | 78 | 1020.0 |
| 20260905171804 | 23 | 219 | 4.8 | 9.7 | 0.00 | 0.00 | 0.00 | 78 | 1020.0 |
| 20260905171304 | 23 | 247 | 4.8 | 4.8 | 0.00 | 0.00 | 0.00 | 78 | 1020.0 |
| 20260905164804 | 23 | 237 | 3.2 | 4.8 | 0.00 | 0.00 | 0.00 | 78 | 1020.0 |
| 20260905164305 | 23 | 243 | 4.8 | 4.8 | 0.00 | 0.00 | 0.00 | 76 | 1020.0 |
| 20260905163804 | 23 | 254 | 3.2 | 4.8 | 0.00 | 0.00 | 0.00 | 77 | 1021.0 |
| 20260905163304 | 23 | 258 | 4.8 | 8.0 | 0.00 | 0.00 | 0.00 | 78 | 1021.0 |
| 20260905162805 | 23 | 252 | 4.8 | 8.0 | 0.00 | 0.00 | 0.00 | 77 | 1021.0 |
| 20260905162306 | 23 | 231 | 4.8 | 8.0 | 0.00 | 0.00 | 0.00 | 77 | 1021.0 |
| 20260905154305 | 24 | 203 | 8.0 | 14.5 | 0.00 | 0.00 | 0.00 | 72 | 1021.0 |
| 20260905153304 | 24 | 227 | 4.8 | 9.7 | 0.00 | 0.00 | 0.00 | 73 | 1021.0 |
| 20260905145307 | 24 | 198 | 8.0 | 11.3 | 0.00 | 0.00 | 0.00 | 73 | 1021.0 |
| 20260905144805 | 23 | 217 | 4.8 | 12.9 | 0.00 | 0.00 | 0.00 | 75 | 1021.0 |
| 20260905144305 | 24 | 232 | 8.0 | 11.3 | 0.00 | 0.00 | 0.00 | 73 | 1021.0 |
| 20260905143806 | 24 | 189 | 8.0 | 14.5 | 0.00 | 0.00 | 0.00 | 74 | 1021.0 |
| 20260905143305 | 23 | 223 | 8.0 | 11.3 | 0.00 | 0.00 | 0.00 | 75 | 1021.0 |
| 20260905142806 | 23 | 205 | 4.8 | 11.3 | 0.00 | 0.00 | 0.00 | 73 | 1021.0 |
| 20260905141305 | 25 | 201 | 6.4 | 11.3 | 0.00 | 0.00 | 0.00 | 70 | 1021.0 |
| 20260905140806 | 25 | 188 | 6.4 | 11.3 | 0.00 | 0.00 | 0.00 | 69 | 1021.0 |
| 20260905135307 | 25 | 198 | 6.4 | 14.5 | 0.00 | 0.00 | 0.00 | 67 | 1021.0 |
| 20260905134805 | 24 | 189 | 8.0 | 11.3 | 0.00 | 0.00 | 0.00 | 72 | 1021.0 |
| 20260905134306 | 23 | 226 | 6.4 | 9.7 | 0.00 | 0.00 | 0.00 | 71 | 1021.0 |
| 20260905131805 | 25 | 206 | 8.0 | 14.5 | 0.00 | 0.00 | 0.00 | 69 | 1021.0 |
| 20260905131305 | 25 | 205 | 4.8 | 11.3 | 0.00 | 0.00 | 0.00 | 71 | 1021.0 |
| 20260905130305 | 25 | 197 | 6.4 | 11.3 | 0.00 | 0.00 | 0.00 | 69 | 1021.0 |
| 20260905125805 | 24 | 195 | 6.4 | 19.3 | 0.00 | 0.00 | 0.00 | 72 | 1021.0 |
| 20260905125306 | 24 | 216 | 8.0 | 16.1 | 0.00 | 0.00 | 0.00 | 72 | 1021.0 |
| 20260905123306 | 24 | 228 | 8.0 | 14.5 | 0.00 | 0.00 | 0.00 | 72 | 1021.0 |
| 20260905121805 | 24 | 237 | 8.0 | 14.5 | 0.00 | 0.00 | 0.00 | 73 | 1021.0 |
| 20260905121305 | 24 | 220 | 6.4 | 9.7 | 0.00 | 0.00 | 0.00 | 73 | 1021.0 |
| 20260905120305 | 23 | 215 | 6.4 | 11.3 | 0.00 | 0.00 | 0.00 | 74 | 1021.0 |
| 20260905114305 | 23 | 195 | 4.8 | 11.3 | 0.00 | 0.00 | 0.00 | 72 | 1021.0 |
| 20260905113806 | 25 | 182 | 4.8 | 9.7 | 0.00 | 0.00 | 0.00 | 72 | 1021.0 |
| 20260905112805 | 23 | 255 | 4.8 | 11.3 | 0.00 | 0.00 | 0.00 | 73 | 1021.0 |
| 20260905112306 | 24 | 257 | 3.2 | 9.7 | 0.00 | 0.00 | 0.00 | 74 | 1021.0 |
| 20260905111805 | 22 | 238 | 3.2 | 4.8 | 0.00 | 0.00 | 0.00 | 78 | 1021.0 |
| 20260905111305 | 22 | 232 | 4.8 | 8.0 | 0.00 | 0.00 | 0.00 | 78 | 1021.0 |
| 20260905110805 | 22 | 235 | 3.2 | 9.7 | 0.00 | 0.00 | 0.00 | 78 | 1021.0 |
| 20260905110305 | 22 | 185 | 3.2 | 8.0 | 0.00 | 0.00 | 0.00 | 77 | 1021.0 |
| 20260905105306 | 22 | 213 | 4.8 | 8.0 | 0.00 | 0.00 | 0.00 | 76 | 1021.0 |
| 20260905104805 | 23 | 235 | 6.4 | 9.7 | 0.00 | 0.00 | 0.00 | 75 | 1021.0 |
| 20260905104306 | 22 | 201 | 3.2 | 8.0 | 0.00 | 0.00 | 0.00 | 77 | 1021.0 |
| 20260905101805 | 22 | 234 | 4.8 | 8.0 | 0.00 | 0.00 | 0.00 | 76 | 1021.0 |
| 20260905101305 | 22 | 241 | 4.8 | 9.7 | 0.00 | 0.00 | 0.00 | 77 | 1021.0 |
| 20260905100805 | 22 | 246 | 3.2 | 8.0 | 0.00 | 0.00 | 0.00 | 78 | 1021.0 |
| 20260905100305 | 22 | 248 | 3.2 | 8.0 | 0.00 | 0.00 | 0.00 | 79 | 1021.0 |
| 20260905095306 | 22 | 250 | 4.8 | 8.0 | 0.00 | 0.00 | 0.00 | 79 | 1021.0 |
| 20260905094806 | 22 | 201 | 6.4 | 9.7 | 0.00 | 0.00 | 0.00 | 77 | 1021.0 |
| 20260905094305 | 22 | 195 | 4.8 | 9.7 | 0.00 | 0.00 | 0.00 | 78 | 1021.0 |
| 20260905090305 | 22 | 92 | 3.2 | 8.0 | 0.00 | 0.00 | 0.00 | 74 | 1021.0 |
| 20260905085805 | 22 | 161 | 3.2 | 8.0 | 0.00 | 0.00 | 0.00 | 72 | 1021.0 |
| 20260905085306 | 22 | 89 | 3.2 | 9.7 | 0.00 | 0.00 | 0.00 | 74 | 1021.0 |
| 20260905084805 | 22 | 139 | 4.8 | 9.7 | 0.00 | 0.00 | 0.00 | 74 | 1021.0 |
| 20260905081305 | 21 | 45 | 0.0 | 3.2 | 0.00 | 0.00 | 0.00 | 81 | 1020.0 |
| 20260905080805 | 21 | 56 | 0.0 | 3.2 | 0.00 | 0.00 | 0.00 | 80 | 1020.0 |
| 20260905080306 | 21 | 69 | 0.0 | 3.2 | 0.00 | 0.00 | 0.00 | 80 | 1020.0 |
| 20260905075805 | 21 | 85 | 0.0 | 1.6 | 0.00 | 0.00 | 0.00 | 82 | 1020.0 |
| 20260905075306 | 21 | 35 | 1.6 | 3.2 | 0.00 | 0.00 | 0.00 | 84 | 1020.0 |
| 20260905074805 | 20 | 36 | 1.6 | 3.2 | 0.00 | 0.00 | 0.00 | 89 | 1020.0 |
| 20260905074305 | 19 | 90 | 1.6 | 3.2 | 0.00 | 0.00 | 0.00 | 89 | 1020.0 |
| 20260905073805 | 19 | 68 | 1.6 | 3.2 | 0.00 | 0.00 | 0.00 | 89 | 1020.0 |
| 20260905072306 | 18 | 49 | 1.6 | 4.8 | 0.00 | 0.00 | 0.00 | 89 | 1020.0 |
| 20260905065805 | 18 | 35 | 3.2 | 4.8 | 0.00 | 0.00 | 0.00 | 88 | 1020.0 |
| 20260905064805 | 18 | 31 | 3.2 | 4.8 | 0.00 | 0.00 | 0.00 | 88 | 1020.0 |
| 20260905062805 | 18 | 26 | 3.2 | 4.8 | 0.00 | 0.00 | 0.00 | 88 | 1019.0 |
| 20260905061304 | 18 | 32 | 3.2 | 4.8 | 0.00 | 0.00 | 0.00 | 88 | 1019.0 |
| 20260905060805 | 18 | 34 | 3.2 | 4.8 | 0.00 | 0.00 | 0.00 | 88 | 1019.0 |
| 20260905054305 | 18 | 33 | 3.2 | 4.8 | 0.00 | 0.00 | 0.00 | 87 | 1019.0 |
| 20260905053805 | 18 | 28 | 3.2 | 4.8 | 0.00 | 0.00 | 0.00 | 87 | 1019.0 |
| 20260905052805 | 18 | 29 | 3.2 | 4.8 | 0.00 | 0.00 | 0.00 | 87 | 1019.0 |
| 20260905052306 | 18 | 18 | 3.2 | 4.8 | 0.00 | 0.00 | 0.00 | 87 | 1019.0 |
| 20260905051805 | 18 | 22 | 3.2 | 4.8 | 0.00 | 0.00 | 0.00 | 87 | 1019.0 |
| 20260905051305 | 18 | 26 | 3.2 | 4.8 | 0.00 | 0.00 | 0.00 | 87 | 1019.0 |
| 20260905044805 | 18 | 19 | 3.2 | 4.8 | 0.00 | 0.00 | 0.00 | 87 | 1019.0 |
| 20260905044304 | 18 | 21 | 3.2 | 4.8 | 0.00 | 0.00 | 0.00 | 87 | 1019.0 |
| 20260905043805 | 18 | 23 | 3.2 | 4.8 | 0.00 | 0.00 | 0.00 | 87 | 1020.0 |
| 20260905042805 | 18 | 33 | 1.6 | 4.8 | 0.00 | 0.00 | 0.00 | 86 | 1020.0 |
| 20260905042307 | 18 | 33 | 1.6 | 4.8 | 0.00 | 0.00 | 0.00 | 86 | 1020.0 |
| 20260905040305 | 19 | 31 | 3.2 | 4.8 | 0.00 | 0.00 | 0.00 | 86 | 1020.0 |
| 20260905035805 | 18 | 17 | 1.6 | 3.2 | 0.00 | 0.00 | 0.00 | 86 | 1020.0 |
| 20260905033305 | 18 | 24 | 1.6 | 3.2 | 0.00 | 0.00 | 0.00 | 85 | 1020.0 |
| 20260905031805 | 19 | 14 | 1.6 | 3.2 | 0.00 | 0.00 | 0.00 | 84 | 1020.0 |
| 20260905031304 | 19 | 14 | 1.6 | 1.6 | 0.00 | 0.00 | 0.00 | 84 | 1020.0 |
| 20260905030304 | 19 | 12 | 0.0 | 3.2 | 0.00 | 0.00 | 0.00 | 84 | 1020.0 |
| 20260905025804 | 19 | 24 | 1.6 | 3.2 | 0.00 | 0.00 | 0.00 | 84 | 1020.0 |
| 20260905024804 | 19 | 32 | 1.6 | 3.2 | 0.00 | 0.00 | 0.00 | 84 | 1020.0 |
| 20260905024305 | 19 | 30 | 1.6 | 4.8 | 0.00 | 0.00 | 0.00 | 84 | 1020.0 |
| 20260905023806 | 19 | 21 | 1.6 | 4.8 | 0.00 | 0.00 | 0.00 | 83 | 1021.0 |
| 20260905021304 | 20 | 1 | 0.0 | 1.6 | 0.00 | 0.00 | 0.00 | 82 | 1021.0 |
| 20260905020805 | 20 | 8 | 0.0 | 0.0 | 0.00 | 0.00 | 0.00 | 82 | 1021.0 |
| 20260905015306 | 20 | 20 | 0.0 | 1.6 | 0.00 | 0.00 | 0.00 | 82 | 1021.0 |
| 20260905014804 | 20 | 45 | 0.0 | 1.6 | 0.00 | 0.00 | 0.00 | 82 | 1021.0 |
| 20260905014305 | 20 | 32 | 0.0 | 1.6 | 0.00 | 0.00 | 0.00 | 82 | 1021.0 |
| 20260905013805 | 20 | 33 | 0.0 | 3.2 | 0.00 | 0.00 | 0.00 | 82 | 1021.0 |
| 20260905010805 | 21 | 16 | 0.0 | 3.2 | 0.00 | 0.00 | 0.00 | 83 | 1021.0 |
| 20260905010305 | 21 | 92 | 0.0 | 1.6 | 0.00 | 0.00 | 0.00 | 83 | 1021.0 |
| 20260905005805 | 21 | 41 | 1.6 | 4.8 | 0.00 | 0.00 | 0.00 | 83 | 1021.0 |
| 20260905005306 | 21 | 37 | 0.0 | 1.6 | 0.00 | 0.00 | 0.00 | 83 | 1021.0 |
| 20260905004805 | 21 | 65 | 0.0 | 1.6 | 0.00 | 0.00 | 0.00 | 83 | 1021.0 |
| 20260905002805 | 21 | 98 | 0.0 | 1.6 | 0.00 | 0.00 | 0.00 | 84 | 1021.0 |
| 20260905002306 | 21 | 86 | 0.0 | 4.8 | 0.00 | 0.00 | 0.00 | 84 | 1021.0 |
| 20260905001804 | 21 | 82 | 0.0 | 1.6 | 0.00 | 0.00 | 0.00 | 84 | 1021.0 |
| 20260905001305 | 21 | 93 | 0.0 | 1.6 | 0.00 | 0.00 | 0.00 | 84 | 1021.0 |
| 20260905000305 | 21 | 92 | 0.0 | 1.6 | 0.00 | 0.00 | 0.00 | 84 | 1021.0 |
| 20260904234305 | 21 | 52 | 0.0 | 3.2 | 0.00 | 0.00 | 0.00 | 85 | 1021.0 |
| 20260904233804 | 20 | 38 | 0.0 | 1.6 | 0.00 | 0.00 | 0.00 | 85 | 1021.0 |
| 20260904233304 | 20 | 5 | 0.0 | 4.8 | 0.00 | 0.00 | 0.00 | 85 | 1021.0 |
| 20260904232805 | 20 | 23 | 1.6 | 4.8 | 0.00 | 0.00 | 0.00 | 85 | 1021.0 |
| 20260904232306 | 20 | 22 | 0.0 | 3.2 | 0.00 | 0.00 | 0.00 | 85 | 1021.0 |
| 20260904231305 | 20 | 9 | 0.0 | 4.8 | 0.00 | 0.00 | 0.00 | 85 | 1021.0 |
| 20260904225805 | 20 | 0 | 0.0 | 4.8 | 0.00 | 0.00 | 0.00 | 85 | 1021.0 |
| 20260904225306 | 20 | 340 | 1.6 | 4.8 | 0.00 | 0.00 | 0.00 | 86 | 1021.0 |
| 20260904224805 | 20 | 72 | 0.0 | 3.2 | 0.00 | 0.00 | 0.00 | 86 | 1021.0 |
| 20260904224305 | 20 | 354 | 0.0 | 4.8 | 0.00 | 0.00 | 0.00 | 86 | 1021.0 |
| 20260904223305 | 20 | 339 | 0.0 | 4.8 | 0.00 | 0.00 | 0.00 | 86 | 1022.0 |
| 20260904220804 | 20 | 333 | 0.0 | 1.6 | 0.00 | 0.00 | 0.00 | 86 | 1021.0 |